QPF
0.03 0.02 0.02 0.03 0.02 0.02 0.02 0.03 0.02 0.02 0.02 0.02 0.02 0.05 0.05 0.03 0.03 0.02 0.02 0.03 0.04 0.04 0.05 0.06 0.06 0.04 0.04 0.03 0.03 0.03 0.03 0.03 0.03 0.02 0.02 0.02 0.03 0.03 0.03 0.03 0.02 0.02 0.02
0.05 0.02 0.02 0.04 0.05 0.03 0.02 0.03 0.03 0.04 0.03 0.03 0.05 0.07 0.06 0.04 0.03 0.03 0.02 0.03 0.04 0.04 0.05 0.06 0.06 0.05 0.05 0.04 0.03 0.03 0.04 0.04 0.04 0.03 0.02 0.02 0.02 0.02 0.02 0.02 0.02 0.02 0.02
0.06 0.02 0.01 0.01 0.03 0.05 0.04 0.03 0.04 0.06 0.04 0.04 0.06 0.08 0.07 0.04 0.02 0.02 0.03 0.04 0.05 0.04 0.04 0.04 0.04 0.06 0.07 0.06 0.05 0.04 0.04 0.05 0.04 0.03 0.02 0.02 0.02 0.02 0.02 0.02 0.03 0.03 0.03
0.05 0.02 0.01 0.01 0.01 0.03 0.04 0.04 0.06 0.07 0.04 0.05 0.04 0.04 0.05 0.03 0.02 0.01 0.02 0.03 0.04 0.04 0.04 0.05 0.05 0.05 0.05 0.07 0.08 0.08 0.07 0.05 0.04 0.03 0.02 0.03 0.02 0.01 0.01 0.02 0.03 0.03 0.04
0.05 0.03 0.01 0.01 0.01 0.02 0.03 0.04 0.07 0.07 0.04 0.05 0.05 0.04 0.04 0.03 0.02 0.02 0.02 0.02 0.03 0.04 0.03 0.04 0.05 0.05 0.06 0.09 0.10 0.11 0.09 0.07 0.05 0.04 0.03 0.03 0.02 0.02 0.02 0.03 0.03 0.03 0.03
0.04 0.04 0.02 0.02 0.02 0.03 0.03 0.04 0.06 0.06 0.03 0.03 0.03 0.03 0.02 0.02 0.02 0.02 0.02 0.03 0.03 0.03 0.04 0.04 0.04 0.05 0.08 0.11 0.10 0.11 0.10 0.10 0.07 0.05 0.05 0.04 0.03 0.03 0.02 0.03 0.03 0.02 0.02
0.04 0.04 0.03 0.03 0.04 0.05 0.05 0.04 0.05 0.05 0.04 0.03 0.03 0.04 0.02 0.02 0.01 0.01 0.02 0.03 0.03 0.03 0.05 0.05 0.05 0.05 0.06 0.08 0.08 0.08 0.08 0.08 0.08 0.06 0.05 0.04 0.03 0.03 0.03 0.03 0.03 0.02 0.02
0.05 0.03 0.03 0.03 0.05 0.06 0.05 0.05 0.05 0.04 0.04 0.04 0.04 0.03 0.01 0.01 0.01 0.01 0.01 0.01 0.02 0.03 0.04 0.05 0.05 0.05 0.04 0.03 0.04 0.06 0.07 0.07 0.07 0.07 0.06 0.05 0.05 0.05 0.04 0.04 0.04 0.03 0.03
0.05 0.04 0.03 0.03 0.04 0.04 0.04 0.03 0.03 0.03 0.02 0.03 0.04 0.04 0.02 0.01 0.01 0.01 0.02 0.02 0.02 0.03 0.04 0.04 0.04 0.05 0.05 0.04 0.03 0.04 0.06 0.08 0.08 0.10 0.10 0.08 0.06 0.05 0.04 0.05 0.04 0.04 0.04
0.04 0.04 0.04 0.04 0.05 0.04 0.03 0.02 0.02 0.02 0.02 0.02 0.03 0.03 0.03 0.02 0.01 0.01 0.01 0.03 0.03 0.03 0.05 0.06 0.07 0.08 0.08 0.06 0.05 0.04 0.04 0.06 0.09 0.10 0.10 0.08 0.08 0.06 0.04 0.05 0.05 0.06 0.05
0.03 0.03 0.04 0.05 0.06 0.06 0.05 0.04 0.04 0.04 0.03 0.02 0.02 0.02 0.03 0.03 0.02 0.02 0.02 0.02 0.02 0.03 0.03 0.04 0.05 0.08 0.08 0.07 0.07 0.06 0.05 0.04 0.03 0.04 0.06 0.06 0.07 0.06 0.05 0.05 0.06 0.08 0.07
0.03 0.02 0.03 0.03 0.03 0.04 0.05 0.06 0.06 0.05 0.04 0.04 0.05 0.05 0.04 0.04 0.05 0.04 0.02 0.01 0.01 0.02 0.02 0.02 0.02 0.04 0.07 0.07 0.06 0.05 0.05 0.05 0.05 0.04 0.03 0.04 0.05 0.06 0.06 0.06 0.06 0.07 0.08
0.02 0.02 0.03 0.03 0.02 0.02 0.03 0.04 0.06 0.07 0.06 0.05 0.06 0.06 0.05 0.04 0.06 0.05 0.04 0.03 0.02 0.02 0.02 0.02 0.02 0.03 0.03 0.04 0.04 0.04 0.04 0.05 0.05 0.06 0.06 0.05 0.03 0.04 0.05 0.06 0.07 0.07 0.07
0.02 0.03 0.04 0.04 0.04 0.03 0.04 0.04 0.05 0.06 0.07 0.08 0.08 0.07 0.07 0.07 0.07 0.07 0.07 0.06 0.04 0.03 0.02 0.02 0.02 0.03 0.04 0.03 0.04 0.05 0.04 0.04 0.04 0.05 0.06 0.06 0.05 0.04 0.04 0.04 0.05 0.05 0.06
0.02 0.03 0.05 0.06 0.07 0.06 0.06 0.05 0.05 0.06 0.07 0.07 0.08 0.07 0.05 0.05 0.05 0.05 0.05 0.05 0.05 0.04 0.03 0.02 0.02 0.03 0.04 0.05 0.05 0.05 0.05 0.04 0.03 0.03 0.04 0.05 0.05 0.05 0.05 0.04 0.04 0.05 0.06
0.01 0.03 0.05 0.08 0.08 0.06 0.06 0.05 0.04 0.04 0.05 0.06 0.07 0.07 0.05 0.04 0.04 0.03 0.04 0.04 0.04 0.04 0.03 0.02 0.02 0.02 0.03 0.04 0.05 0.05 0.05 0.05 0.04 0.03 0.04 0.05 0.06 0.07 0.09 0.08 0.07 0.08 0.09
0.01 0.03 0.05 0.05 0.04 0.04 0.03 0.02 0.03 0.04 0.04 0.04 0.04 0.05 0.06 0.06 0.05 0.04 0.04 0.04 0.04 0.05 0.04 0.03 0.03 0.04 0.05 0.06 0.06 0.06 0.05 0.05 0.05 0.04 0.03 0.03 0.03 0.03 0.04 0.05 0.07 0.08 0.10
0.01 0.02 0.01 0.02 0.03 0.05 0.03 0.02 0.02 0.03 0.04 0.04 0.04 0.04 0.05 0.06 0.05 0.05 0.04 0.03 0.04 0.05 0.05 0.04 0.04 0.06 0.07 0.07 0.07 0.06 0.05 0.04 0.04 0.04 0.03 0.03 0.03 0.03 0.03 0.03 0.05 0.09 0.10
0.01 0.01 0.01 0.01 0.02 0.03 0.03 0.02 0.03 0.03 0.03 0.03 0.03 0.04 0.05 0.06 0.05 0.05 0.04 0.02 0.02 0.03 0.03 0.02 0.02 0.03 0.03 0.03 0.04 0.03 0.03 0.03 0.03 0.03 0.03 0.03 0.02 0.02 0.02 0.02 0.02 0.03 0.04
0.01 0.02 0.01 0.01 0.02 0.02 0.02 0.02 0.02 0.02 0.03 0.02 0.02 0.03 0.04 0.04 0.04 0.05 0.04 0.03 0.02 0.02 0.02 0.02 0.02 0.02 0.02 0.03 0.03 0.03 0.03 0.02 0.03 0.02 0.02 0.01 0.01 0.01 0.02 0.02 0.02 0.02 0.03
0.02 0.02 0.01 0.01 0.01 0.02 0.02 0.02 0.03 0.03 0.02 0.02 0.02 0.02 0.03 0.04 0.05 0.05 0.04 0.03 0.04 0.03 0.03 0.03 0.03 0.02 0.03 0.03 0.03 0.03 0.02 0.03 0.03 0.02 0.01 0.01 0.01 0.01 0.02 0.02 0.02 0.02 0.03
0.04 0.04 0.04 0.03 0.01 0.01 0.02 0.02 0.03 0.03 0.03 0.02 0.02 0.02 0.03 0.05 0.05 0.05 0.04 0.04 0.04 0.03 0.03 0.02 0.02 0.02 0.02 0.02 0.03 0.03 0.03 0.03 0.04 0.04 0.02 0.01 0.01 0.01 0.02 0.02 0.02 0.02 0.03
0.05 0.04 0.03 0.03 0.03 0.03 0.03 0.02 0.03 0.03 0.03 0.03 0.03 0.04 0.05 0.06 0.08 0.07 0.06 0.06 0.04 0.03 0.02 0.01 0.01 0.01 0.02 0.02 0.03 0.03 0.02 0.02 0.04 0.04 0.03 0.01 0.02 0.02 0.01 0.01 0.02 0.02 0.02
0.06 0.05 0.05 0.05 0.04 0.03 0.03 0.03 0.04 0.04 0.03 0.04 0.05 0.05 0.06 0.06 0.07 0.08 0.08 0.07 0.05 0.02 0.01 0.01 0.01 0.01 0.01 0.02 0.03 0.03 0.04 0.03 0.02 0.03 0.03 0.02 0.02 0.02 0.02 0.02 0.02 0.03 0.03
0.05 0.07 0.06 0.04 0.03 0.03 0.03 0.03 0.04 0.03 0.03 0.04 0.05 0.05 0.05 0.06 0.08 0.09 0.09 0.07 0.05 0.03 0.03 0.02 0.01 0.01 0.01 0.02 0.03 0.04 0.04 0.03 0.02 0.01 0.01 0.02 0.01 0.02 0.01 0.01 0.01 0.02 0.02
0.04 0.06 0.06 0.05 0.05 0.04 0.04 0.04 0.05 0.04 0.04 0.04 0.05 0.05 0.05 0.05 0.07 0.09 0.09 0.08 0.06 0.04 0.04 0.03 0.02 0.01 0.01 0.02 0.03 0.03 0.04 0.04 0.03 0.02 0.01 0.01 0.01 0.01 0.01 0.01 0.01 0.01 0.01
MSLP
1015.83 1016.11 1016.34 1016.53 1016.72 1016.90 1017.09 1017.29 1017.47 1017.62 1017.72 1017.79 1017.82 1017.84 1017.87 1017.95 1018.10 1018.32 1018.60 1018.91 1019.24 1019.54 1019.79 1019.99 1020.14 1020.24 1020.33 1020.41 1020.51 1020.64 1020.78 1020.94 1021.11 1021.28 1021.43 1021.58 1021.71 1021.84 1021.95 1022.06 1022.15 1022.21 1022.26
1016.06 1016.31 1016.53 1016.73 1016.92 1017.11 1017.32 1017.53 1017.72 1017.88 1017.99 1018.05 1018.06 1018.05 1018.04 1018.06 1018.13 1018.28 1018.48 1018.73 1019.01 1019.28 1019.53 1019.73 1019.89 1020.01 1020.10 1020.19 1020.28 1020.38 1020.50 1020.64 1020.79 1020.94 1021.09 1021.24 1021.39 1021.52 1021.64 1021.75 1021.83 1021.88 1021.91
1016.19 1016.44 1016.66 1016.87 1017.08 1017.30 1017.52 1017.75 1017.96 1018.14 1018.26 1018.32 1018.33 1018.29 1018.24 1018.20 1018.20 1018.25 1018.36 1018.52 1018.72 1018.94 1019.16 1019.35 1019.52 1019.65 1019.76 1019.86 1019.95 1020.04 1020.14 1020.25 1020.38 1020.51 1020.65 1020.80 1020.94 1021.08 1021.21 1021.31 1021.40 1021.45 1021.47
1016.21 1016.47 1016.71 1016.94 1017.18 1017.42 1017.68 1017.93 1018.16 1018.35 1018.49 1018.57 1018.58 1018.53 1018.45 1018.36 1018.29 1018.25 1018.26 1018.32 1018.42 1018.56 1018.72 1018.89 1019.05 1019.19 1019.31 1019.42 1019.52 1019.61 1019.70 1019.79 1019.89 1020.00 1020.12 1020.26 1020.39 1020.53 1020.66 1020.77 1020.86 1020.92 1020.95
1016.11 1016.39 1016.66 1016.93 1017.19 1017.47 1017.74 1018.01 1018.26 1018.47 1018.64 1018.74 1018.77 1018.74 1018.65 1018.54 1018.41 1018.29 1018.21 1018.16 1018.16 1018.21 1018.29 1018.40 1018.53 1018.67 1018.79 1018.91 1019.02 1019.11 1019.19 1019.27 1019.35 1019.44 1019.54 1019.66 1019.78 1019.91 1020.04 1020.16 1020.26 1020.33 1020.36
1015.90 1016.21 1016.51 1016.82 1017.12 1017.42 1017.72 1018.00 1018.26 1018.49 1018.68 1018.82 1018.89 1018.90 1018.84 1018.73 1018.58 1018.41 1018.25 1018.10 1018.00 1017.94 1017.93 1017.96 1018.04 1018.14 1018.26 1018.38 1018.49 1018.58 1018.67 1018.74 1018.80 1018.87 1018.95 1019.05 1019.16 1019.28 1019.40 1019.52 1019.62 1019.70 1019.75
1015.60 1015.94 1016.29 1016.63 1016.97 1017.30 1017.60 1017.89 1018.17 1018.42 1018.64 1018.82 1018.95 1019.02 1019.02 1018.95 1018.81 1018.62 1018.40 1018.18 1017.97 1017.81 1017.69 1017.63 1017.64 1017.69 1017.77 1017.88 1017.98 1018.08 1018.16 1018.23 1018.29 1018.34 1018.41 1018.48 1018.57 1018.68 1018.79 1018.91 1019.02 1019.10 1019.16
1015.24 1015.61 1016.00 1016.39 1016.76 1017.11 1017.43 1017.73 1018.01 1018.27 1018.53 1018.76 1018.96 1019.10 1019.18 1019.18 1019.09 1018.91 1018.67 1018.39 1018.10 1017.84 1017.61 1017.45 1017.36 1017.35 1017.38 1017.45 1017.54 1017.63 1017.71 1017.78 1017.84 1017.89 1017.95 1018.01 1018.09 1018.18 1018.28 1018.39 1018.49 1018.58 1018.65
1014.83 1015.24 1015.68 1016.11 1016.51 1016.88 1017.21 1017.51 1017.80 1018.07 1018.36 1018.64 1018.91 1019.14 1019.31 1019.40 1019.37 1019.24 1019.01 1018.70 1018.36 1018.01 1017.69 1017.43 1017.24 1017.14 1017.11 1017.13 1017.19 1017.28 1017.36 1017.43 1017.50 1017.55 1017.61 1017.66 1017.73 1017.81 1017.90 1018.00 1018.09 1018.18 1018.25
1014.39 1014.84 1015.32 1015.79 1016.22 1016.61 1016.95 1017.26 1017.54 1017.83 1018.14 1018.46 1018.79 1019.11 1019.37 1019.54 1019.60 1019.53 1019.34 1019.03 1018.66 1018.25 1017.86 1017.51 1017.24 1017.06 1016.96 1016.93 1016.96 1017.02 1017.10 1017.18 1017.26 1017.33 1017.39 1017.45 1017.52 1017.59 1017.67 1017.75 1017.84 1017.93 1018.00
1013.91 1014.39 1014.91 1015.41 1015.87 1016.28 1016.64 1016.94 1017.23 1017.52 1017.84 1018.20 1018.58 1018.95 1019.29 1019.55 1019.70 1019.70 1019.56 1019.29 1018.92 1018.49 1018.06 1017.65 1017.31 1017.06 1016.90 1016.82 1016.82 1016.86 1016.93 1017.02 1017.11 1017.19 1017.27 1017.34 1017.42 1017.49 1017.57 1017.65 1017.73 1017.80 1017.87
1013.38 1013.89 1014.42 1014.95 1015.44 1015.87 1016.23 1016.55 1016.83 1017.13 1017.45 1017.82 1018.22 1018.64 1019.04 1019.37 1019.59 1019.67 1019.59 1019.38 1019.05 1018.64 1018.20 1017.78 1017.40 1017.11 1016.90 1016.78 1016.74 1016.76 1016.82 1016.91 1017.01 1017.11 1017.21 1017.30 1017.39 1017.47 1017.55 1017.63 1017.71 1017.78 1017.85
1012.79 1013.30 1013.84 1014.38 1014.89 1015.34 1015.72 1016.04 1016.33 1016.62 1016.94 1017.31 1017.72 1018.16 1018.59 1018.97 1019.25 1019.40 1019.40 1019.26 1019.00 1018.64 1018.24 1017.83 1017.46 1017.15 1016.92 1016.77 1016.70 1016.70 1016.75 1016.83 1016.93 1017.05 1017.16 1017.27 1017.38 1017.48 1017.57 1017.66 1017.74 1017.81 1017.88
1012.12 1012.62 1013.16 1013.71 1014.22 1014.69 1015.08 1015.42 1015.71 1016.00 1016.32 1016.68 1017.08 1017.52 1017.96 1018.36 1018.69 1018.90 1018.99 1018.93 1018.76 1018.49 1018.15 1017.80 1017.46 1017.16 1016.93 1016.77 1016.68 1016.65 1016.68 1016.74 1016.84 1016.96 1017.08 1017.21 1017.33 1017.45 1017.56 1017.66 1017.75 1017.84 1017.91
1011.38 1011.85 1012.38 1012.93 1013.45 1013.93 1014.35 1014.70 1015.01 1015.31 1015.62 1015.96 1016.35 1016.77 1017.20 1017.61 1017.97 1018.24 1018.39 1018.43 1018.35 1018.18 1017.94 1017.67 1017.39 1017.13 1016.92 1016.75 1016.65 1016.60 1016.60 1016.64 1016.72 1016.82 1016.94 1017.07 1017.21 1017.34 1017.47 1017.59 1017.70 1017.80 1017.89
1010.57 1011.03 1011.55 1012.09 1012.62 1013.12 1013.56 1013.94 1014.27 1014.58 1014.88 1015.21 1015.58 1015.98 1016.39 1016.79 1017.16 1017.47 1017.68 1017.80 1017.82 1017.76 1017.63 1017.45 1017.25 1017.05 1016.87 1016.72 1016.61 1016.54 1016.50 1016.51 1016.56 1016.64 1016.74 1016.86 1016.99 1017.13 1017.28 1017.42 1017.55 1017.69 1017.80
1009.73 1010.18 1010.69 1011.24 1011.78 1012.30 1012.77 1013.17 1013.53 1013.86 1014.17 1014.49 1014.83 1015.20 1015.58 1015.97 1016.34 1016.66 1016.93 1017.12 1017.23 1017.27 1017.24 1017.17 1017.06 1016.93 1016.79 1016.67 1016.55 1016.47 1016.40 1016.38 1016.38 1016.42 1016.49 1016.59 1016.71 1016.85 1017.00 1017.15 1017.31 1017.47 1017.62
1008.89 1009.35 1009.86 1010.42 1010.98 1011.52 1012.01 1012.45 1012.83 1013.17 1013.49 1013.80 1014.12 1014.46 1014.81 1015.18 1015.53 1015.87 1016.16 1016.40 1016.59 1016.72 1016.80 1016.82 1016.80 1016.75 1016.67 1016.58 1016.48 1016.39 1016.31 1016.25 1016.21 1016.21 1016.24 1016.30 1016.40 1016.52 1016.66 1016.83 1017.00 1017.18 1017.36
1008.08 1008.55 1009.09 1009.66 1010.24 1010.80 1011.32 1011.77 1012.17 1012.52 1012.84 1013.14 1013.43 1013.74 1014.07 1014.40 1014.74 1015.07 1015.38 1015.67 1015.92 1016.12 1016.28 1016.40 1016.47 1016.50 1016.49 1016.45 1016.38 1016.30 1016.22 1016.14 1016.07 1016.03 1016.03 1016.05 1016.11 1016.21 1016.33 1016.49 1016.67 1016.86 1017.06
1007.29 1007.80 1008.36 1008.95 1009.55 1010.12 1010.65 1011.12 1011.52 1011.87 1012.17 1012.45 1012.73 1013.00 1013.29 1013.60 1013.92 1014.25 1014.57 1014.88 1015.18 1015.45 1015.69 1015.90 1016.06 1016.17 1016.24 1016.26 1016.25 1016.20 1016.13 1016.06 1015.98 1015.92 1015.88 1015.87 1015.90 1015.96 1016.06 1016.19 1016.36 1016.56 1016.77
1006.53 1007.07 1007.66 1008.27 1008.88 1009.46 1009.98 1010.44 1010.83 1011.16 1011.44 1011.70 1011.94 1012.19 1012.45 1012.74 1013.04 1013.36 1013.70 1014.04 1014.38 1014.71 1015.02 1015.30 1015.55 1015.75 1015.91 1016.01 1016.07 1016.08 1016.05 1016.00 1015.94 1015.87 1015.82 1015.78 1015.78 1015.81 1015.88 1015.99 1016.13 1016.31 1016.51
1005.78 1006.35 1006.96 1007.59 1008.20 1008.76 1009.27 1009.70 1010.06 1010.36 1010.61 1010.84 1011.05 1011.28 1011.52 1011.79 1012.09 1012.42 1012.77 1013.14 1013.52 1013.90 1014.28 1014.64 1014.97 1015.26 1015.50 1015.70 1015.83 1015.92 1015.95 1015.95 1015.92 1015.87 1015.82 1015.78 1015.76 1015.77 1015.80 1015.88 1015.99 1016.14 1016.32
1005.02 1005.61 1006.24 1006.87 1007.47 1008.01 1008.49 1008.89 1009.21 1009.47 1009.69 1009.88 1010.08 1010.29 1010.53 1010.80 1011.11 1011.46 1011.84 1012.24 1012.66 1013.09 1013.53 1013.95 1014.35 1014.72 1015.05 1015.33 1015.55 1015.71 1015.82 1015.88 1015.90 1015.89 1015.86 1015.83 1015.81 1015.80 1015.82 1015.87 1015.94 1016.06 1016.20
1004.25 1004.85 1005.48 1006.11 1006.70 1007.22 1007.66 1008.02 1008.31 1008.53 1008.72 1008.90 1009.09 1009.30 1009.56 1009.85 1010.19 1010.57 1010.98 1011.42 1011.88 1012.36 1012.83 1013.30 1013.76 1014.19 1014.58 1014.93 1015.22 1015.46 1015.64 1015.76 1015.84 1015.88 1015.89 1015.88 1015.87 1015.87 1015.88 1015.91 1015.96 1016.03 1016.13
1003.48 1004.08 1004.72 1005.34 1005.92 1006.42 1006.84 1007.18 1007.44 1007.64 1007.82 1008.00 1008.20 1008.44 1008.72 1009.06 1009.44 1009.86 1010.32 1010.79 1011.29 1011.79 1012.29 1012.78 1013.27 1013.73 1014.15 1014.54 1014.88 1015.17 1015.40 1015.57 1015.70 1015.79 1015.84 1015.87 1015.89 1015.90 1015.92 1015.94 1015.97 1016.01 1016.07
1002.76 1003.36 1004.00 1004.62 1005.19 1005.69 1006.10 1006.43 1006.68 1006.90 1007.09 1007.29 1007.53 1007.81 1008.14 1008.53 1008.96 1009.43 1009.92 1010.42 1010.93 1011.44 1011.95 1012.44 1012.91 1013.37 1013.79 1014.18 1014.53 1014.84 1015.10 1015.31 1015.47 1015.59 1015.69 1015.75 1015.80 1015.84 1015.88 1015.91 1015.93 1015.96 1015.99
Thickness
5755 5754 5753 5753 5752 5752 5751 5751 5751 5750 5750 5749 5748 5747 5747 5746 5745 5745 5745 5744 5744 5743 5743 5742 5740 5739 5737 5736 5734 5733 5731 5730 5728 5727 5726 5724 5723 5722 5720 5719 5718 5716 5715
5755 5754 5753 5752 5752 5751 5750 5750 5749 5749 5748 5748 5747 5747 5746 5746 5745 5745 5745 5744 5744 5743 5742 5742 5740 5739 5738 5736 5735 5733 5732 5731 5729 5728 5727 5725 5724 5723 5721 5720 5718 5717 5716
5755 5754 5752 5751 5751 5750 5749 5749 5748 5748 5747 5747 5746 5746 5745 5745 5745 5745 5744 5744 5743 5743 5742 5741 5740 5739 5738 5736 5735 5734 5732 5731 5729 5728 5727 5726 5725 5723 5722 5720 5719 5718 5716
5755 5753 5752 5751 5750 5749 5748 5747 5747 5746 5745 5744 5744 5744 5744 5744 5744 5744 5744 5743 5743 5742 5742 5741 5740 5739 5738 5737 5735 5734 5733 5731 5730 5728 5727 5726 5725 5724 5723 5721 5720 5718 5717
5755 5753 5752 5751 5750 5748 5747 5747 5745 5744 5743 5742 5742 5742 5742 5742 5743 5743 5743 5743 5742 5741 5741 5740 5740 5739 5738 5737 5735 5734 5733 5732 5730 5729 5728 5726 5726 5725 5724 5722 5721 5719 5718
5755 5753 5751 5750 5749 5748 5746 5745 5744 5743 5742 5741 5741 5740 5740 5741 5742 5742 5742 5742 5741 5740 5740 5739 5739 5738 5737 5736 5735 5734 5733 5732 5731 5729 5728 5727 5726 5725 5724 5723 5721 5719 5718
5755 5753 5752 5750 5749 5747 5746 5745 5743 5741 5740 5739 5737 5735 5737 5739 5740 5740 5740 5740 5740 5739 5738 5738 5737 5737 5737 5736 5735 5734 5733 5732 5731 5730 5729 5727 5727 5725 5724 5723 5721 5720 5719
5756 5754 5752 5750 5749 5747 5745 5743 5741 5739 5738 5737 5734 5730 5728 5731 5735 5738 5738 5738 5738 5737 5737 5737 5736 5736 5736 5735 5734 5734 5733 5732 5731 5730 5729 5728 5726 5725 5724 5723 5721 5720 5719
5756 5754 5753 5751 5749 5747 5745 5743 5741 5738 5735 5735 5734 5731 5725 5724 5727 5732 5735 5736 5736 5735 5735 5735 5735 5735 5734 5733 5733 5732 5731 5731 5730 5729 5728 5727 5726 5725 5723 5722 5721 5720 5718
5756 5754 5753 5751 5749 5747 5745 5743 5741 5739 5736 5733 5733 5732 5731 5729 5724 5724 5729 5732 5733 5733 5733 5734 5734 5733 5732 5731 5731 5731 5730 5729 5729 5728 5727 5726 5725 5724 5723 5721 5720 5719 5718
5756 5754 5753 5750 5748 5746 5745 5743 5741 5739 5737 5735 5733 5731 5729 5727 5726 5722 5721 5725 5728 5730 5731 5731 5731 5731 5730 5730 5729 5729 5729 5728 5727 5727 5726 5725 5724 5723 5721 5720 5720 5718 5717
5754 5753 5752 5750 5748 5746 5744 5742 5741 5739 5737 5735 5733 5732 5729 5727 5724 5722 5720 5720 5722 5726 5728 5729 5730 5729 5729 5728 5728 5727 5726 5726 5725 5725 5723 5723 5722 5721 5721 5720 5718 5717 5716
5753 5752 5751 5749 5747 5746 5744 5742 5740 5738 5737 5735 5733 5731 5730 5729 5727 5724 5721 5719 5719 5722 5724 5727 5728 5727 5727 5726 5725 5725 5724 5724 5723 5723 5722 5721 5720 5720 5719 5718 5717 5716 5714
5754 5753 5751 5749 5747 5745 5743 5741 5739 5737 5736 5734 5733 5731 5729 5728 5727 5725 5722 5718 5715 5716 5719 5722 5725 5725 5724 5723 5723 5722 5722 5722 5721 5720 5719 5718 5718 5717 5717 5716 5715 5714 5712
5754 5752 5750 5748 5745 5743 5741 5739 5737 5736 5734 5733 5732 5730 5728 5727 5726 5724 5722 5720 5715 5712 5714 5718 5720 5722 5721 5721 5721 5720 5719 5718 5718 5717 5716 5716 5715 5714 5714 5713 5712 5711 5710
5753 5751 5749 5746 5744 5741 5739 5737 5735 5734 5732 5730 5729 5728 5727 5726 5725 5723 5721 5719 5717 5713 5711 5715 5716 5718 5718 5718 5718 5716 5716 5715 5714 5714 5713 5712 5711 5711 5710 5710 5709 5708 5706
5752 5749 5747 5744 5742 5739 5737 5735 5733 5731 5729 5727 5726 5725 5724 5723 5721 5720 5718 5717 5714 5712 5710 5712 5713 5714 5714 5714 5714 5713 5712 5711 5710 5709 5709 5708 5707 5706 5706 5706 5705 5703 5702
5750 5747 5744 5742 5739 5737 5734 5732 5729 5727 5725 5723 5722 5721 5720 5720 5718 5717 5715 5714 5712 5711 5708 5707 5708 5708 5708 5709 5708 5707 5707 5707 5705 5705 5704 5703 5702 5702 5701 5701 5700 5699 5698
5747 5744 5742 5738 5736 5733 5731 5729 5726 5724 5722 5720 5719 5717 5716 5715 5714 5713 5712 5710 5708 5708 5705 5703 5702 5702 5702 5702 5701 5701 5701 5700 5700 5700 5699 5698 5697 5696 5696 5696 5695 5694 5693
5743 5740 5737 5734 5732 5729 5727 5725 5722 5720 5718 5717 5716 5714 5713 5712 5711 5710 5708 5706 5705 5702 5700 5698 5697 5696 5695 5695 5694 5694 5694 5693 5693 5693 5692 5691 5691 5690 5690 5690 5689 5689 5688
5739 5736 5733 5730 5727 5725 5723 5720 5718 5716 5713 5712 5711 5711 5710 5710 5709 5707 5705 5703 5700 5697 5695 5692 5691 5690 5689 5687 5687 5687 5686 5686 5685 5685 5685 5684 5684 5684 5683 5683 5683 5682 5682
5734 5730 5727 5725 5722 5721 5719 5717 5714 5711 5709 5707 5706 5706 5705 5705 5704 5702 5700 5699 5696 5693 5690 5687 5685 5684 5683 5682 5681 5681 5679 5678 5677 5679 5677 5677 5677 5676 5676 5676 5676 5676 5675
5728 5724 5722 5719 5716 5715 5714 5711 5709 5705 5703 5702 5701 5700 5699 5699 5697 5695 5693 5691 5690 5688 5686 5684 5681 5680 5678 5677 5675 5674 5673 5672 5672 5672 5669 5670 5669 5669 5669 5669 5669 5668 5667
5723 5719 5716 5714 5711 5709 5708 5706 5704 5700 5697 5696 5695 5694 5692 5692 5691 5688 5686 5683 5682 5681 5680 5679 5678 5676 5674 5672 5670 5669 5668 5666 5665 5664 5662 5662 5662 5661 5662 5661 5661 5660 5659
5716 5713 5710 5708 5704 5703 5701 5699 5696 5693 5690 5689 5688 5687 5686 5685 5683 5680 5678 5675 5674 5673 5673 5672 5671 5670 5668 5666 5665 5662 5660 5658 5657 5657 5655 5654 5654 5653 5653 5653 5652 5652 5650
5710 5707 5704 5701 5698 5696 5693 5691 5689 5686 5683 5681 5680 5678 5677 5676 5674 5672 5669 5667 5666 5666 5665 5664 5662 5661 5660 5659 5657 5656 5654 5652 5650 5650 5650 5647 5646 5644 5644 5645 5644 5643 5641